�N����,����,�~����,�C��,���x,�C��,����,���ϕ���,�ő�u�ԕ���,�ő厞����,���˗�,�I�_���x,�n�����x,�ő啗���N��,DTYPE
"19/07/29","00:10",0.0,25.9,90.2,1007.1,318.8,0.8,2.0,340.1,0.00,24.2,27.1,"00:03:44",1
"19/07/29","00:20",0.0,25.6,90.1,1006.7,305.3,0.6,1.2,338.4,0.00,23.9,26.9,"00:17:52",1
"19/07/29","00:30",0.0,25.6,90.6,1006.7,309.0,0.8,1.9,332.2,0.00,24.0,27.0,"00:27:36",1
"19/07/29","00:40",0.0,25.6,90.8,1006.7,328.3,0.6,1.1,339.3,0.00,24.0,26.9,"00:30:32",1
"19/07/29","00:50",0.0,25.5,90.9,1006.2,294.0,0.6,1.0,337.8,0.00,23.9,26.8,"00:45:44",1
"19/07/29","01:00",0.0,25.4,91.3,1006.7,317.7,0.8,1.2,342.3,0.00,23.9,26.7,"00:52:24",1
"19/07/29","01:10",0.0,25.3,91.4,1006.7,318.7,0.7,1.1,338.8,0.00,23.8,26.6,"01:00:08",1
"19/07/29","01:20",0.0,25.2,91.6,1006.7,334.7,0.8,1.3,337.3,0.00,23.8,26.7,"01:15:04",1
"19/07/29","01:30",0.0,25.1,92.0,1006.2,298.5,0.3,0.8,332.8,0.00,23.7,26.5,"01:20:16",1
"19/07/29","01:40",0.0,25.0,92.2,1006.7,194.2,0.2,0.9,298.4,0.00,23.7,26.4,"01:39:36",1
"19/07/29","01:50",0.0,24.9,92.2,1006.7,317.6,0.8,1.0,308.0,0.00,23.6,26.4,"01:40:48",1
"19/07/29","02:00",0.0,24.9,92.7,1006.7,326.7,1.0,1.3,336.9,0.00,23.7,26.5,"01:52:56",1
"19/07/29","02:10",0.0,24.9,92.8,1006.4,305.7,0.7,1.0,315.1,0.00,23.7,26.5,"02:00:48",1
"19/07/29","02:20",0.0,24.8,92.7,1006.7,290.6,0.8,1.6,317.1,0.00,23.6,26.5,"02:11:52",1
"19/07/29","02:30",0.0,24.8,92.7,1006.7,299.4,0.6,1.1,329.8,0.00,23.6,26.2,"02:25:20",1
"19/07/29","02:40",0.0,24.7,92.9,1007.1,293.7,0.7,1.3,343.9,0.00,23.5,26.3,"02:36:24",1
"19/07/29","02:50",0.0,24.6,92.7,1006.9,292.2,0.7,1.0,276.1,0.00,23.4,26.3,"02:40:56",1
"19/07/29","03:00",0.0,24.5,93.2,1006.9,309.0,0.7,1.1,308.7,0.00,23.4,26.3,"02:59:12",1
"19/07/29","03:10",0.0,24.5,93.5,1007.1,302.2,0.8,1.4,318.6,0.00,23.4,26.1,"03:01:52",1
"19/07/29","03:20",0.0,24.5,93.5,1007.1,289.7,0.7,0.9,276.6,0.00,23.4,26.1,"03:11:44",1
"19/07/29","03:30",0.0,24.5,93.5,1007.1,309.6,0.8,2.1,332.6,0.00,23.4,26.1,"03:29:28",1
"19/07/29","03:40",0.0,24.4,93.5,1007.4,311.9,0.8,1.3,320.1,0.00,23.3,26.0,"03:30:16",1
"19/07/29","03:50",0.0,24.3,93.7,1007.4,302.3,0.7,1.1,338.4,0.00,23.3,26.0,"03:40:48",1
"19/07/29","04:00",0.0,24.3,93.6,1007.4,298.4,1.0,1.4,312.1,0.00,23.2,25.9,"03:53:52",1
"19/07/29","04:10",0.0,24.2,93.7,1007.4,298.2,0.8,1.3,307.4,0.00,23.2,26.1,"04:00:24",1
"19/07/29","04:20",0.0,24.2,93.8,1007.1,290.8,0.7,1.2,312.8,0.00,23.2,26.0,"04:14:56",1
"19/07/29","04:30",0.0,24.2,93.9,1007.4,303.8,0.7,1.3,314.7,0.00,23.2,25.9,"04:24:24",1
"19/07/29","04:40",0.0,24.2,94.0,1007.6,304.6,0.7,1.1,327.8,0.00,23.2,25.8,"04:35:52",1
"19/07/29","04:50",0.0,24.1,94.0,1007.4,323.9,0.7,1.4,303.4,0.00,23.1,25.7,"04:48:08",1
"19/07/29","05:00",0.0,24.0,94.0,1007.6,302.1,1.1,2.0,337.4,0.00,23.0,25.7,"04:53:36",1
"19/07/29","05:10",0.0,24.0,94.2,1007.8,289.3,0.8,1.2,333.6,0.00,23.0,25.8,"05:00:08",1
"19/07/29","05:20",0.0,23.9,94.1,1007.6,291.5,0.7,0.9,296.5,0.00,22.9,25.9,"05:10:40",1
"19/07/29","05:30",0.0,24.1,94.4,1007.8,40.7,0.1,0.5,68.3,0.00,23.2,25.7,"05:21:28",1
"19/07/29","05:40",0.0,24.0,94.1,1008.1,311.2,0.7,1.3,316.0,0.00,23.0,25.7,"05:32:40",1
"19/07/29","05:50",0.0,24.0,94.3,1008.1,317.3,1.3,1.8,331.1,0.00,23.1,25.7,"05:46:48",1
"19/07/29","06:00",0.0,24.0,94.4,1008.6,287.5,0.5,1.0,317.1,0.00,23.1,25.5,"05:50:32",1
"19/07/29","06:10",0.0,24.0,94.3,1008.3,307.0,0.8,1.4,331.4,0.00,23.1,25.6,"06:02:48",1
"19/07/29","06:20",0.0,24.1,94.4,1008.6,282.0,0.7,0.9,278.2,0.00,23.2,25.6,"06:14:48",1
"19/07/29","06:30",0.0,24.3,94.2,1008.6,298.3,0.6,1.1,322.5,0.00,23.3,25.7,"06:29:28",1
"19/07/29","06:40",0.0,24.4,94.1,1008.6,312.0,0.6,1.0,341.7,0.01,23.4,25.7,"06:30:48",1
"19/07/29","06:50",0.0,24.7,93.9,1008.3,293.9,0.5,1.3,338.1,0.02,23.7,25.7,"06:41:28",1
"19/07/29","07:00",0.0,24.9,93.7,1008.3,303.2,0.7,1.2,326.8,0.03,23.9,25.6,"06:57:04",1
"19/07/29","07:10",0.0,25.1,93.5,1008.8,342.1,0.8,1.8,335.3,0.04,24.0,25.6,"07:09:28",1
"19/07/29","07:20",0.0,25.3,93.5,1008.6,332.3,1.1,1.9,332.2,0.05,24.2,25.7,"07:10:48",1
"19/07/29","07:30",0.0,25.6,92.7,1008.3,332.0,0.6,1.1,335.7,0.07,24.4,25.9,"07:21:20",1
"19/07/29","07:40",0.0,25.9,92.2,1008.8,314.9,0.5,1.0,341.1,0.06,24.6,25.9,"07:37:28",1
"19/07/29","07:50",0.0,25.7,91.7,1008.1,309.6,0.2,0.6,346.2,0.08,24.3,25.8,"07:43:12",1
"19/07/29","08:00",0.0,26.5,90.0,1007.8,309.5,0.2,0.5,314.6,0.11,24.8,26.2,"07:50:48",1
"19/07/29","08:10",0.0,27.2,86.1,1008.1,120.7,0.3,0.8,107.2,0.16,24.7,26.2,"08:01:52",1
"19/07/29","08:20",0.0,27.6,82.3,1007.4,136.8,0.2,1.3,195.2,0.20,24.3,26.0,"08:18:40",1
"19/07/29","08:30",0.0,28.0,81.1,1008.1,122.8,0.3,0.9,167.9,0.19,24.5,26.2,"08:20:24",1
"19/07/29","08:40",0.0,28.0,81.6,1008.6,302.4,0.2,0.9,316.7,0.14,24.6,26.4,"08:35:20",1
"19/07/29","08:50",0.0,28.0,80.4,1008.3,195.9,0.8,2.2,220.5,0.19,24.3,26.7,"08:44:16",1
"19/07/29","09:00",0.0,28.5,80.0,1008.3,187.7,0.6,1.6,210.0,0.22,24.8,26.7,"08:53:20",1
"19/07/29","09:10",0.0,28.2,80.3,1008.3,147.2,0.7,1.8,128.1,0.17,24.5,26.9,"09:06:32",1
"19/07/29","09:20",0.0,28.9,80.1,1008.1,147.7,0.7,1.9,128.5,0.16,25.2,26.9,"09:11:20",1
"19/07/29","09:30",0.0,28.5,79.4,1008.1,129.8,0.8,2.0,141.7,0.19,24.6,27.0,"09:24:16",1
"19/07/29","09:40",0.0,29.1,77.4,1008.6,55.6,1.0,2.0,34.2,0.25,24.8,27.1,"09:37:12",1
"19/07/29","09:50",0.0,29.8,77.3,1008.1,59.3,0.7,1.7,127.8,0.28,25.4,27.2,"09:48:16",1
"19/07/29","10:00",0.0,29.8,76.1,1008.6,121.5,1.2,2.2,123.1,0.32,25.2,27.5,"09:54:08",1
"19/07/29","10:10",0.0,30.1,75.0,1009.3,98.2,1.0,2.1,109.0,0.38,25.2,27.7,"10:03:04",1
"19/07/29","10:20",0.0,30.0,74.3,1009.0,163.7,1.1,3.4,212.6,0.34,25.0,27.9,"10:14:08",1
"19/07/29","10:30",0.0,29.6,75.7,1008.6,178.1,1.2,2.6,202.4,0.23,24.9,27.8,"10:29:04",1
"19/07/29","10:40",0.0,30.8,74.7,1008.6,153.2,1.3,2.6,200.7,0.45,25.8,28.0,"10:39:36",1
"19/07/29","10:50",0.0,30.8,72.4,1009.0,193.1,1.7,3.2,201.6,0.50,25.3,28.1,"10:48:56",1
"19/07/29","11:00",0.0,30.9,73.8,1009.0,184.6,1.8,4.3,218.6,0.53,25.7,28.6,"10:57:04",1
"19/07/29","11:10",0.0,31.6,69.7,1009.0,218.9,0.8,2.5,338.6,0.52,25.4,28.6,"11:02:40",1
"19/07/29","11:20",0.0,31.9,69.4,1009.0,216.2,0.8,2.2,208.5,0.56,25.6,28.9,"11:14:56",1
"19/07/29","11:30",0.0,31.8,69.9,1009.5,268.0,0.7,2.0,311.9,0.50,25.7,29.0,"11:20:48",1
"19/07/29","11:40",0.0,31.7,67.5,1009.3,205.7,1.2,2.9,230.4,0.48,25.0,29.2,"11:37:36",1
"19/07/29","11:50",0.0,32.6,67.2,1009.5,191.7,1.1,2.5,171.8,0.55,25.8,29.5,"11:42:00",1
"19/07/29","12:00",0.0,32.9,66.3,1009.5,213.2,1.1,3.6,226.2,0.56,25.8,29.7,"11:59:12",1
"19/07/29","12:10",0.0,32.5,64.0,1009.0,230.7,1.1,2.7,206.1,0.58,24.8,29.9,"12:08:08",1
"19/07/29","12:20",0.0,32.5,64.3,1009.0,152.5,1.2,3.2,215.5,0.59,24.9,30.4,"12:12:16",1
"19/07/29","12:30",0.0,33.1,62.7,1008.8,187.1,1.0,2.2,219.0,0.50,25.1,30.4,"12:23:44",1
"19/07/29","12:40",0.0,33.6,62.2,1009.3,173.7,1.1,2.8,192.4,0.57,25.4,30.5,"12:32:48",1
"19/07/29","12:50",0.0,33.5,61.7,1009.3,237.1,1.1,3.6,225.5,0.57,25.2,30.7,"12:47:04",1
"19/07/29","13:00",0.0,33.7,62.5,1009.3,219.9,0.8,1.9,339.2,0.59,25.6,30.9,"12:55:12",1
"19/07/29","13:10",0.0,33.2,60.2,1008.8,151.0,0.7,2.0,102.2,0.39,24.5,31.1,"13:04:16",1
"19/07/29","13:20",0.0,33.1,61.4,1008.6,324.6,0.7,1.8,346.9,0.30,24.7,31.1,"13:11:52",1
"19/07/29","13:30",0.0,34.1,57.7,1008.3,231.2,1.0,2.9,227.7,0.57,24.6,31.1,"13:27:52",1
"19/07/29","13:40",0.0,34.0,60.6,1008.6,197.6,1.1,2.7,198.8,0.40,25.3,31.0,"13:36:48",1
"19/07/29","13:50",0.0,34.4,59.9,1008.6,180.6,1.2,2.8,205.6,0.56,25.5,31.2,"13:46:08",1
"19/07/29","14:00",0.0,34.1,60.0,1008.1,167.3,1.7,3.3,134.2,0.56,25.3,31.0,"13:57:44",1
"19/07/29","14:10",0.0,34.3,58.5,1008.3,162.6,1.5,3.1,182.2,0.55,25.0,30.9,"14:01:20",1
"19/07/29","14:20",0.0,34.7,57.4,1008.3,296.3,1.2,3.3,353.8,0.52,25.1,31.1,"14:13:28",1
"19/07/29","14:30",0.0,34.5,55.2,1008.1,213.3,1.2,4.2,220.1,0.52,24.2,31.0,"14:27:20",1
"19/07/29","14:40",0.0,34.5,58.2,1008.1,171.5,1.2,2.5,134.4,0.49,25.1,31.2,"14:38:24",1
"19/07/29","14:50",0.0,35.1,56.0,1007.8,175.0,1.3,3.2,218.5,0.47,25.0,31.2,"14:45:04",1
"19/07/29","15:00",0.0,35.3,53.3,1007.6,204.6,2.2,4.2,212.8,0.46,24.4,31.2,"14:58:56",1
"19/07/29","15:10",0.0,35.1,55.5,1007.8,151.0,1.2,3.6,202.3,0.44,24.9,31.4,"15:00:24",1
"19/07/29","15:20",0.0,35.2,54.7,1007.4,312.1,1.1,3.3,356.3,0.42,24.7,31.4,"15:13:12",1
"19/07/29","15:30",0.0,35.5,54.0,1007.1,243.4,1.0,2.2,6.3,0.39,24.8,31.6,"15:20:24",1
"19/07/29","15:40",0.0,35.5,54.0,1006.9,301.7,0.8,3.2,219.8,0.38,24.8,31.6,"15:39:12",1
"19/07/29","15:50",0.0,35.3,52.7,1006.9,234.1,1.2,3.4,228.3,0.37,24.2,31.5,"15:41:28",1
"19/07/29","16:00",0.0,35.3,54.3,1006.7,196.3,1.3,3.2,224.0,0.34,24.7,31.7,"15:51:04",1
"19/07/29","16:10",0.0,35.3,53.3,1006.7,198.7,1.2,5.2,214.9,0.30,24.4,31.5,"16:01:52",1
"19/07/29","16:20",0.0,35.5,53.7,1006.4,176.6,0.7,1.8,123.6,0.31,24.7,31.5,"16:15:12",1
"19/07/29","16:30",0.0,35.5,51.1,1006.7,220.9,0.8,2.6,220.1,0.29,23.9,31.6,"16:21:28",1
"19/07/29","16:40",0.0,36.0,50.5,1006.2,253.4,1.1,3.1,345.3,0.18,24.1,31.4,"16:35:28",1
"19/07/29","16:50",0.0,35.1,51.8,1005.7,225.0,1.3,3.3,218.1,0.14,23.7,31.5,"16:49:04",1
"19/07/29","17:00",0.0,35.5,52.0,1005.2,224.3,0.8,2.6,232.0,0.18,24.2,31.3,"16:53:20",1
"19/07/29","17:10",0.0,35.6,51.9,1005.5,226.4,1.1,2.5,221.1,0.19,24.2,31.4,"17:02:40",1
"19/07/29","17:20",0.0,35.3,52.3,1005.7,233.7,1.1,3.1,202.9,0.17,24.1,31.4,"17:11:28",1
"19/07/29","17:30",0.0,35.2,53.7,1005.5,234.6,1.0,2.7,224.9,0.14,24.4,31.4,"17:25:12",1
"19/07/29","17:40",0.0,34.9,54.8,1005.2,235.8,1.3,3.1,200.3,0.12,24.5,31.1,"17:32:56",1
"19/07/29","17:50",0.0,34.9,50.5,1005.5,253.4,0.7,2.0,323.2,0.10,23.1,31.0,"17:41:36",1
"19/07/29","18:00",0.0,34.6,51.0,1005.5,259.4,0.6,2.4,211.2,0.03,23.0,30.9,"17:53:28",1
"19/07/29","18:10",0.0,34.2,54.3,1005.2,322.7,0.6,2.4,341.0,0.01,23.7,30.8,"18:08:40",1
"19/07/29","18:20",0.0,33.3,58.0,1004.8,329.3,1.1,2.4,317.8,0.01,24.0,30.7,"18:12:08",1
"19/07/29","18:30",0.0,32.7,60.4,1004.3,339.3,0.8,1.9,349.7,0.01,24.1,30.9,"18:25:28",1
"19/07/29","18:40",0.0,32.4,62.5,1004.3,342.6,1.0,2.1,334.8,0.01,24.4,30.6,"18:34:40",1
"19/07/29","18:50",0.0,32.0,64.2,1004.5,345.7,1.0,1.9,355.7,0.01,24.4,30.4,"18:45:52",1
"19/07/29","19:00",0.0,31.7,65.7,1004.5,0.8,1.0,2.1,356.9,0.00,24.5,30.4,"18:54:24",1
"19/07/29","19:10",0.0,31.4,67.4,1004.3,356.6,1.1,3.1,351.0,0.00,24.7,30.3,"19:02:16",1
"19/07/29","19:20",0.0,31.2,69.3,1004.3,0.6,0.5,1.6,358.5,0.00,24.9,30.3,"19:11:44",1
"19/07/29","19:30",0.0,30.6,71.5,1004.1,356.7,0.2,1.0,27.4,0.00,24.9,30.1,"19:20:40",1
"19/07/29","19:40",0.0,30.2,72.9,1004.1,345.2,0.2,1.1,357.0,0.00,24.8,30.0,"19:30:48",1
"19/07/29","19:50",0.0,29.9,73.7,1003.6,170.8,0.1,0.5,116.8,0.00,24.7,29.9,"19:41:04",1
"19/07/29","20:00",0.0,29.5,74.9,1004.1,316.4,0.5,1.3,329.8,0.00,24.6,29.7,"19:58:00",1
"19/07/29","20:10",0.0,29.4,75.8,1003.8,333.1,1.5,2.6,335.6,0.00,24.7,29.6,"20:08:32",1
"19/07/29","20:20",0.0,29.6,74.9,1004.1,340.5,1.8,3.3,334.5,0.00,24.7,29.5,"20:14:40",1
"19/07/29","20:30",0.0,29.1,75.8,1004.8,327.5,0.8,2.5,339.9,0.00,24.4,29.3,"20:20:08",1
"19/07/29","20:40",0.0,28.9,76.9,1004.5,301.7,0.8,2.0,343.5,0.00,24.5,29.3,"20:32:40",1
"19/07/29","20:50",0.0,28.6,77.7,1004.5,3.5,0.1,0.5,81.7,0.00,24.4,29.2,"20:48:32",1
"19/07/29","21:00",0.0,28.3,79.2,1005.0,302.0,0.5,1.3,334.7,0.00,24.4,29.1,"20:55:44",1
"19/07/29","21:10",0.0,28.0,80.9,1005.0,322.5,1.0,1.8,340.0,0.00,24.5,29.1,"21:04:32",1
"19/07/29","21:20",0.0,27.9,81.1,1005.2,339.5,1.3,2.0,348.4,0.00,24.4,29.1,"21:15:52",1
"19/07/29","21:30",0.0,27.8,81.1,1005.5,322.3,0.6,1.6,340.3,0.00,24.3,28.8,"21:21:04",1
"19/07/29","21:40",0.0,27.7,81.0,1004.8,306.8,1.1,2.7,341.4,0.00,24.2,28.6,"21:32:08",1
"19/07/29","21:50",0.0,27.7,80.8,1005.2,317.9,0.7,1.1,340.0,0.00,24.1,28.7,"21:46:16",1
"19/07/29","22:00",0.0,27.5,81.7,1005.2,297.8,0.8,1.9,331.5,0.00,24.1,28.5,"21:56:56",1
"19/07/29","22:10",0.0,27.5,82.0,1005.2,338.3,0.7,1.2,346.1,0.00,24.2,28.1,"22:07:20",1
"19/07/29","22:20",0.0,27.2,82.9,1005.2,318.1,0.7,1.4,319.9,0.00,24.1,28.4,"22:12:16",1
"19/07/29","22:30",0.0,27.1,83.2,1005.2,321.4,1.6,3.2,331.4,0.00,24.0,28.2,"22:28:48",1
"19/07/29","22:40",0.0,27.1,82.9,1005.2,321.0,1.2,2.1,342.9,0.00,24.0,28.2,"22:30:40",1
"19/07/29","22:50",0.0,27.1,82.7,1005.2,311.8,1.3,2.6,344.4,0.00,23.9,28.2,"22:45:04",1
"19/07/29","23:00",0.0,27.1,82.6,1005.2,321.6,1.1,2.5,346.4,0.00,23.9,28.1,"22:54:08",1
"19/07/29","23:10",0.0,27.0,82.5,1005.7,301.0,0.8,2.1,326.4,0.00,23.8,28.1,"23:09:44",1
"19/07/29","23:20",0.0,27.0,82.5,1005.0,332.4,1.5,2.4,323.6,0.00,23.8,27.9,"23:18:56",1
"19/07/29","23:30",0.0,27.1,82.3,1005.5,325.2,1.1,1.9,335.7,0.00,23.9,28.0,"23:20:24",1
"19/07/29","23:40",0.0,27.0,82.3,1005.2,313.9,1.0,1.9,306.4,0.00,23.8,27.9,"23:30:24",1
"19/07/29","23:50",0.0,26.9,82.7,1005.2,324.8,0.8,1.3,341.7,0.00,23.7,27.8,"23:42:56",1
"19/07/29","24:00",0.0,26.8,83.1,1005.5,328.2,0.8,1.7,329.3,0.00,23.7,27.8,"23:50:02",1
